[[{"header":{"parameterUnit":"m.s-1","parameterCategory":1,"la1":30.2991,"la2":30.254,"lo1":-89.0895,"lo2":-89.0444,"dy":0.0017,"dx":0.0017,"nx":28,"ny":28,"refTime":"2023-09-01T21:00:00:Z","depth":0,"parameterNumber":2,"parameterNumberName":"U-component_of_WINDS"},"data":[0,0,0,0,0,0,0,0,0,0,0,0,0,0,0,0,0,0,0,0,0,0,0,0,0,0,0,0,0,0,0,0,0,0,0,0,0,0,0,0,0,0,0,0,0,0,0,0,0,0,0,0,0,0,0,0,0,0,-0.4633,-0.4633,0,-0.4575,-0.4574,-0.4574,-0.4537,-0.4537,-0.4536,-0.4536,-0.4477,-0.4476,-0.4475,0,0,0,0,0,0,0,0,0,0,0,0,0,-0.4713,-0.4712,-0.4633,-0.4633,-0.4632,-0.4575,-0.4574,-0.4573,-0.4537,-0.4537,-0.4536,-0.4536,-0.4478,-0.4476,-0.4474,0,0,0,0,0,0,0,0,0,0,0,0,0,-0.4669,-0.4712,-0.4633,-0.4607,-0.4604,-0.4575,-0.4574,-0.4573,-0.4537,-0.4537,-0.4536,-0.4536,-0.4478,-0.4476,-0.4474,-0.4468,0,0,-0.4468,-0.4467,0,0,0,0,0,0,0,0,-0.4672,-0.4666,-0.4611,-0.4609,-0.4605,-0.4563,-0.4581,-0.4538,-0.4537,-0.4562,-0.4536,-0.4536,-0.4506,-0.4502,-0.4491,-0.4465,-0.4462,-0.4468,-0.4466,-0.4466,-0.4465,0,0,0,0,0,0,0,-0.4675,-0.4669,-0.461,-0.4611,-0.4607,-0.4598,-0.4591,-0.4572,-0.4537,-0.456,-0.4557,-0.4551,-0.4504,-0.4493,-0.449,-0.4462,-0.4468,-0.4466,-0.4465,-0.4464,-0.4426,-0.4427,0,0,0,0,0,0,-0.4682,-0.4671,-0.4612,-0.4608,-0.4638,-0.4597,-0.4589,-0.4577,-0.4537,-0.453,-0.4551,-0.4549,-0.4497,-0.4492,-0.4488,-0.4477,-0.4466,-0.4464,-0.4462,-0.4426,-0.4426,-0.4427,0,0,0,0,0,0,-0.4684,-0.4677,-0.4614,-0.4639,-0.463,-0.4596,-0.4582,-0.4576,-0.4565,-0.453,-0.4524,-0.4547,-0.4497,-0.449,-0.4473,-0.4474,-0.4463,-0.4461,-0.4426,-0.4426,-0.4427,-0.4456,0,0,0,0,0,0,-0.4686,-0.4678,-0.4675,-0.4639,-0.4629,-0.4601,-0.4582,-0.4575,-0.4561,-0.4558,-0.4524,-0.4518,-0.4496,-0.4476,-0.4471,-0.4471,-0.4459,-0.4425,-0.4426,-0.4426,-0.4455,-0.4457,-0.446,0,0,0,0,0,-0.4689,-0.4686,-0.4675,-0.4668,-0.4625,-0.4601,-0.4595,-0.4569,-0.4562,-0.4559,-0.4536,-0.4519,-0.4475,-0.4475,-0.4468,-0.4468,-0.4425,-0.4426,-0.4426,-0.4454,-0.4457,-0.4459,0,0,0,0,0,0,-0.4724,-0.4681,-0.4668,-0.4653,-0.4631,-0.4595,-0.459,-0.4574,-0.4553,-0.4551,-0.4521,-0.4513,-0.4498,-0.4482,-0.4482,-0.446,-0.4448,-0.4448,-0.4471,-0.4474,-0.4476,-0.448,-0.4457,0,0,0,0,0,-0.4729,-0.4713,-0.4677,-0.4667,-0.4656,-0.4625,-0.4614,-0.4596,-0.4571,-0.4562,-0.4538,-0.4515,-0.4496,-0.4484,-0.4464,-0.4452,-0.4444,-0.4449,-0.4451,-0.4454,-0.4453,-0.4445,-0.4447,-0.4428,-0.4428,-0.4428,0,0,-0.4741,-0.4716,-0.4707,-0.4673,-0.4654,-0.4638,-0.4617,-0.4601,-0.4589,-0.4559,-0.4541,-0.4523,-0.4495,-0.448,-0.4472,-0.4465,-0.4456,-0.4454,-0.4456,-0.4455,-0.4446,-0.4447,-0.4449,-0.4429,-0.4429,-0.4429,0,0,-0.4754,-0.4734,-0.4723,-0.4703,-0.4674,-0.4653,-0.4651,-0.4617,-0.4603,-0.4584,-0.4562,-0.4547,-0.4514,-0.4495,-0.4482,-0.4487,-0.4471,-0.4482,-0.4494,-0.4486,-0.4488,-0.4489,-0.449,-0.4491,-0.4481,-0.4482,-0.4482,0,-0.4772,-0.4747,-0.4719,-0.4704,-0.469,-0.4662,-0.4651,-0.4634,-0.4599,-0.459,-0.4583,-0.4542,-0.4521,-0.4501,-0.4502,-0.4492,-0.4488,-0.4485,-0.449,-0.4491,-0.4491,-0.4492,-0.4493,-0.4483,-0.4483,-0.4483,-0.4483,0,-0.4771,-0.4753,-0.4748,-0.4716,-0.4701,-0.4688,-0.4658,-0.4646,-0.463,-0.461,-0.4591,-0.4565,-0.4539,-0.4533,-0.4517,-0.4511,-0.4507,-0.4496,-0.4483,-0.4495,-0.4495,-0.4495,-0.4485,-0.4485,-0.4484,-0.4484,0,0,-0.4804,-0.4755,-0.4754,-0.4739,-0.4704,-0.469,-0.4676,-0.465,-0.4641,-0.4618,-0.4605,-0.4578,-0.4567,-0.4551,-0.4533,-0.4526,-0.4531,-0.4515,-0.4514,-0.4518,-0.4522,-0.4531,-0.4532,-0.452,-0.452,-0.452,-0.4524,0,-0.4811,-0.4784,-0.4758,-0.474,-0.4724,-0.4697,-0.4684,-0.4662,-0.4642,-0.4626,-0.4605,-0.4586,-0.4573,-0.4563,-0.4555,-0.4532,-0.4532,-0.4532,-0.4508,-0.4507,-0.4515,-0.4532,-0.4541,-0.4546,-0.4524,-0.4524,-0.4524,0,-0.4816,-0.4794,-0.4774,-0.4741,-0.4733,-0.4722,-0.4696,-0.4681,-0.4655,-0.4641,-0.4623,-0.4604,-0.4587,-0.4577,-0.4554,-0.4555,-0.4543,-0.4531,-0.453,-0.4527,-0.4516,-0.4528,-0.4547,-0.4547,-0.4524,-0.4524,-0.4524,0,-0.4842,-0.4807,-0.479,-0.4778,-0.4739,-0.4732,-0.4715,-0.4688,-0.4674,-0.4652,-0.4643,-0.462,-0.4607,-0.4589,-0.4563,-0.4558,-0.4542,-0.453,-0.4531,-0.4531,-0.4528,-0.4529,-0.4545,-0.4522,-0.4522,-0.4522,-0.4522,0,-0.4852,-0.4841,-0.4801,-0.4791,-0.4777,-0.4748,-0.4736,-0.4717,-0.4693,-0.4679,-0.4654,-0.4641,-0.4609,-0.4592,-0.4572,-0.4555,-0.455,-0.4538,-0.4533,-0.454,-0.4541,-0.4532,-0.4531,-0.4522,-0.4522,-0.4522,-0.4522,0,-0.4878,-0.4851,-0.4831,-0.4795,-0.4786,-0.4778,-0.4747,-0.4736,-0.4715,-0.4697,-0.4691,-0.4659,-0.4638,-0.4611,-0.4581,-0.4567,-0.4553,-0.4545,-0.4562,-0.4558,-0.456,-0.456,-0.457,-0.457,-0.4548,-0.4548,-0.4548,0,-0.4887,-0.4877,-0.484,-0.4829,-0.4812,-0.4794,-0.478,-0.4751,-0.4737,-0.4706,-0.4699,-0.4676,-0.4656,-0.4623,-0.4597,-0.4574,-0.4565,-0.457,-0.4561,-0.4569,-0.4564,-0.4565,-0.4564,-0.4572,-0.4572,-0.4573,-0.4573,0,-0.4904,-0.4891,-0.4871,-0.4847,-0.483,-0.481,-0.4788,-0.478,-0.4747,-0.4732,-0.471,-0.4694,-0.4664,-0.4641,-0.4614,-0.4597,-0.4579,-0.4576,-0.4575,-0.4582,-0.4591,-0.4586,-0.4567,-0.4576,-0.4576,-0.4575,-0.4575,-0.4575,-0.4921,-0.4911,-0.4884,-0.4862,-0.4843,-0.4823,-0.481,-0.4788,-0.4769,-0.4742,-0.4726,-0.4704,-0.4678,-0.464,-0.4624,-0.4606,-0.4599,-0.4598,-0.4597,-0.4597,-0.4599,-0.4595,-0.4601,-0.4601,-0.4601,-0.4601,-0.4601,0,-0.4937,-0.4918,-0.4898,-0.4868,-0.4852,-0.4836,-0.4811,-0.4798,-0.4779,-0.4756,-0.4736,-0.4711,-0.4688,-0.466,-0.4636,-0.4627,-0.4619,-0.4622,-0.4622,-0.4618,-0.4607,-0.461,-0.4629,-0.4629,-0.4629,-0.4629,-0.4629,-0.4629,-0.4943,-0.4926,-0.4909,-0.4882,-0.4862,-0.484,-0.4827,-0.4809,-0.479,-0.4762,-0.4743,-0.4725,-0.47,-0.4673,-0.4652,-0.4645,-0.4637,-0.4642,-0.4632,-0.4622,-0.4619,-0.4617,-0.462,-0.4641,-0.4641,-0.4645,-0.4645,-0.4645]},{"header":{"parameterUnit":"m.s-1","parameterCategory":1,"la1":30.2991,"la2":30.254,"lo1":-89.0895,"lo2":-89.0444,"dy":0.0017,"dx":0.0017,"nx":28,"ny":28,"refTime":"2023-09-01T21:00:00:Z","depth":0,"parameterNumber":3,"parameterNumberName":"V-component_of_WINDS"},"data":[0,0,0,0,0,0,0,0,0,0,0,0,0,0,0,0,0,0,0,0,0,0,0,0,0,0,0,0,0,0,0,0,0,0,0,0,0,0,0,0,0,0,0,0,0,0,0,0,0,0,0,0,0,0,0,0,0,0,1.3402,1.3402,0,1.341,1.341,1.341,1.3359,1.3358,1.3357,1.3355,1.3365,1.3366,1.3368,0,0,0,0,0,0,0,0,0,0,0,0,0,1.3344,1.3345,1.3402,1.3402,1.3402,1.341,1.341,1.341,1.336,1.3358,1.3356,1.3355,1.3364,1.3366,1.3368,0,0,0,0,0,0,0,0,0,0,0,0,0,1.3362,1.3345,1.3402,1.3378,1.3376,1.341,1.341,1.341,1.336,1.3358,1.3356,1.3354,1.3363,1.3366,1.3368,1.3426,0,0,1.3375,1.3376,0,0,0,0,0,0,0,0,1.3361,1.3364,1.3381,1.338,1.3377,1.3382,1.3393,1.3416,1.3361,1.3366,1.3355,1.3353,1.3372,1.3374,1.338,1.3427,1.3427,1.3376,1.3377,1.3378,1.3379,0,0,0,0,0,0,0,1.336,1.3364,1.3405,1.3382,1.3379,1.3367,1.3367,1.3397,1.3381,1.3366,1.3362,1.3363,1.3371,1.3378,1.338,1.3427,1.3376,1.3378,1.3379,1.338,1.3521,1.3523,0,0,0,0,0,0,1.3362,1.3363,1.3405,1.3405,1.3364,1.337,1.337,1.3382,1.3381,1.3378,1.3365,1.3361,1.3375,1.3377,1.338,1.3447,1.3378,1.338,1.3382,1.3519,1.3521,1.3524,0,0,0,0,0,0,1.3361,1.3366,1.3405,1.3383,1.3387,1.3373,1.3387,1.3384,1.3391,1.338,1.3377,1.3375,1.3373,1.3376,1.3415,1.3447,1.3381,1.3384,1.3516,1.3519,1.3523,1.3583,0,0,0,0,0,0,1.3359,1.3366,1.3388,1.3384,1.3389,1.344,1.3389,1.3385,1.3395,1.3389,1.3389,1.3387,1.3372,1.3411,1.3417,1.3449,1.3385,1.3513,1.3517,1.3521,1.3578,1.3588,1.3596,0,0,0,0,0,1.3357,1.3405,1.3389,1.3395,1.3416,1.3442,1.3444,1.3425,1.3398,1.342,1.3413,1.3387,1.3442,1.3416,1.3422,1.3455,1.3511,1.3516,1.3521,1.3574,1.3586,1.3596,0,0,0,0,0,0,1.3414,1.3404,1.3387,1.3434,1.3439,1.3433,1.346,1.3439,1.3452,1.3446,1.3422,1.3422,1.3465,1.3463,1.3434,1.351,1.3472,1.3478,1.351,1.3521,1.353,1.353,1.3387,0,0,0,0,0,1.3431,1.3453,1.3444,1.3487,1.349,1.3475,1.3485,1.347,1.3474,1.3476,1.3472,1.3477,1.3495,1.3508,1.3525,1.3577,1.3576,1.3603,1.3612,1.362,1.3626,1.3653,1.3665,1.3541,1.3541,1.3541,0,0,1.3469,1.3466,1.3482,1.3498,1.35,1.3523,1.3477,1.3503,1.352,1.348,1.3516,1.3513,1.3517,1.3563,1.3583,1.3563,1.366,1.3626,1.3633,1.3635,1.366,1.3672,1.3682,1.3544,1.3544,1.3543,0,0,1.3549,1.3549,1.3585,1.3587,1.359,1.358,1.3588,1.3585,1.3581,1.3617,1.3587,1.3606,1.3639,1.3643,1.3649,1.3729,1.3706,1.3735,1.3784,1.3811,1.3821,1.3829,1.3858,1.3868,1.3741,1.3741,1.3741,0,1.3595,1.3628,1.3606,1.3634,1.3642,1.3606,1.3642,1.3645,1.3654,1.366,1.3638,1.3677,1.3677,1.3723,1.3743,1.3749,1.3758,1.3735,1.3821,1.3829,1.3837,1.3864,1.3875,1.3745,1.3744,1.3744,1.3744,0,1.3685,1.3709,1.3737,1.3745,1.3756,1.3788,1.3771,1.3784,1.3768,1.376,1.3796,1.3794,1.381,1.3819,1.3804,1.3863,1.385,1.3825,1.3786,1.3853,1.3878,1.3888,1.375,1.3749,1.3748,1.3747,0,0,1.3802,1.3796,1.3807,1.381,1.381,1.3828,1.3858,1.3872,1.3885,1.3891,1.3916,1.3944,1.392,1.3927,1.3911,1.3935,1.3998,1.3906,1.3906,1.3923,1.4063,1.4082,1.4095,1.3982,1.3984,1.3986,1.4063,0,1.388,1.3931,1.3911,1.3964,1.3985,1.395,1.3976,1.3979,1.3972,1.3989,1.398,1.4,1.3967,1.3971,1.3993,1.3986,1.4026,1.398,1.4005,1.4006,1.4006,1.4108,1.4129,1.4202,1.4072,1.4074,1.4075,0,1.3979,1.3989,1.4043,1.4038,1.4047,1.407,1.4081,1.4098,1.41,1.4093,1.4101,1.4079,1.4108,1.4069,1.4108,1.4078,1.4087,1.4085,1.4087,1.4089,1.4045,1.4113,1.4224,1.4235,1.409,1.4089,1.4088,0,1.4059,1.4086,1.4121,1.4125,1.4121,1.4138,1.4137,1.4137,1.4147,1.4156,1.4162,1.4175,1.4183,1.4193,1.4176,1.4149,1.4218,1.4177,1.4213,1.4214,1.423,1.423,1.4345,1.4236,1.4235,1.4235,1.4235,0,1.4148,1.4183,1.4157,1.4179,1.4217,1.4193,1.4231,1.4227,1.4227,1.4247,1.4218,1.4238,1.4214,1.4232,1.4218,1.4253,1.4257,1.4252,1.4248,1.4255,1.4256,1.4261,1.4256,1.4238,1.4237,1.4237,1.4236,0,1.4245,1.4229,1.4265,1.4258,1.4257,1.4285,1.4278,1.4298,1.4288,1.4315,1.432,1.4304,1.4323,1.4307,1.4326,1.4317,1.4363,1.4352,1.4362,1.4359,1.4397,1.4394,1.452,1.4536,1.4416,1.4417,1.4418,0,1.4304,1.4329,1.4324,1.4335,1.4336,1.4355,1.4364,1.4341,1.4352,1.4356,1.4376,1.4392,1.4404,1.4437,1.4427,1.4441,1.443,1.4474,1.4433,1.4438,1.4432,1.443,1.4433,1.4482,1.4484,1.4485,1.4486,0,1.441,1.44,1.4414,1.4425,1.4437,1.4445,1.4451,1.4462,1.4438,1.4452,1.4471,1.448,1.4499,1.4516,1.4526,1.4525,1.4502,1.4499,1.4508,1.4516,1.4521,1.4519,1.4386,1.4496,1.4495,1.4495,1.4494,1.4494,1.4489,1.451,1.4509,1.4526,1.4527,1.4533,1.4551,1.4543,1.4558,1.4571,1.4557,1.458,1.4581,1.4593,1.4594,1.4612,1.4594,1.4607,1.4611,1.4615,1.462,1.4517,1.4614,1.4613,1.4613,1.4613,1.4613,0,1.4594,1.4591,1.4606,1.4615,1.4628,1.4603,1.4608,1.4621,1.4641,1.4644,1.4656,1.4677,1.4693,1.4684,1.4698,1.4714,1.4704,1.4718,1.4717,1.4717,1.4635,1.4626,1.4726,1.4726,1.4726,1.4726,1.4726,1.4726,1.465,1.4684,1.4674,1.4709,1.4706,1.4727,1.4732,1.4737,1.4739,1.4764,1.4777,1.477,1.4768,1.4781,1.4795,1.4792,1.4798,1.4817,1.4811,1.4734,1.4723,1.4713,1.4704,1.4819,1.4819,1.4891,1.4892,1.4892]}]]